Regional Weather Roundup
Issued by NWS

Home | Current Version | Previous Version | Graphics & Text | Print | Product List | Glossary On
Versions: 1 2 3 4 5 6 7 8 9 10 11 12 13 14 15 16 17 18 19 20 21 22 23 24 25 26 27 28 29 30 31 32 33 34 35 36 37 38 39 40 41 42 43 44 45 46 47 48 49 50
000
ASUS43 KOAX 282102
RWRNE

WEATHER ROUNDUP FOR NEBRASKA
NATIONAL WEATHER SERVICE OMAHA NE
300 PM CST SUN DEC 28 2014

NOTES: SATELLITE DATA IS BEING USED TO AUGMENT CLOUD COVER ABOVE
       12000 FEET.
       "FAIR" INDICATES FEW OR NO CLOUDS BELOW 12,000 FEET WITH NO
       SIGNIFICANT WEATHER AND/OR OBSTRUCTIONS TO VISIBILITY.

  * THESE STATIONS DO NOT REPORT WEATHER SUCH AS RAIN...SNOW OR FOG.

NEZ001>004-019>022-054>056-282200-
NEBRASKA PANHANDLE

CITY           SKY/WX    TMP DP  RH WIND       PRES   REMARKS
SCOTTSBLUFF    CLOUDY    30  22  72 N5        29.88S WCI  25
ALLIANCE       LGT SNOW  28  25  88 NW7       29.89R FOG     WCI  21
CHADRON        LGT SNOW  22  17  81 SE6       29.92S VSB 1   WCI  14
KIMBALL        SUNNY     30  14  52 CALM      29.84S
SIDNEY         CLOUDY    31  13  47 S5        29.88F WCI  26
$$

NEZ057>060-069>072-079>082-282200-
SOUTHWEST NEBRASKA

CITY           SKY/WX    TMP DP  RH WIND       PRES   REMARKS
NORTH PLATTE   MOSUNNY   26  17  68 S7        29.97F WCI  18
IMPERIAL       PTSUNNY   27  15  61 SE7       29.94S WCI  19
LEXINGTON      MOSUNNY   26  17  66 CALM      30.01F
MCCOOK         CLOUDY    26  17  68 E8        29.98F WCI  18
OGALLALA       CLOUDY    26  15  63 W5        29.95R WCI  20
$$

NEZ005>010-023>029-035>040-094-282200-
NORTH CENTRAL NEBRASKA

CITY           SKY/WX    TMP DP  RH WIND       PRES   REMARKS
VALENTINE      CLOUDY    24  11  57 CALM      29.99S
AINSWORTH      CLOUDY    22  13  68 E3        29.99S
BROKEN BOW     CLOUDY    27  17  66 CALM      30.00S
O`NEILL        PTSUNNY   20  14  79 E3        30.07R
ORD            CLOUDY    25  16  68 CALM      30.04R
$$

NEZ041-046>049-061>064-073>077-083>087-282200-
SOUTH CENTRAL NEBRASKA

CITY           SKY/WX    TMP DP  RH WIND       PRES   REMARKS
GRAND ISLAND   CLOUDY    28  15  58 CALM      30.06S
AURORA         CLOUDY    28  18  67 CALM      30.06R
HASTINGS       CLOUDY    28  16  60 W5        30.03F WCI  23
HEBRON         MOSUNNY   37  21  53 SW6       30.07F WCI  32
HOLDREGE       CLOUDY    26  17  70 CALM      30.01F
KEARNEY *      CLOUDY    27  16  63 CALM      30.03S
YORK           CLOUDY    27  18  69 S5        30.07S WCI  21
$$

NEZ011>018-030>034-042>045-282200-
NORTHEAST NEBRASKA

CITY           SKY/WX    TMP DP  RH WIND       PRES   REMARKS
NORFOLK        MOSUNNY   25  15  66 W3        30.09R
ALBION         CLOUDY    24  14  66 CALM      30.07S
BLAIR          MOSUNNY   32  22  66 CALM      30.09S
COLUMBUS *     CLOUDY    25  14  63 N3        30.10R
FREMONT        MOSUNNY   26  18  69 N3        30.10F
TEKAMAH        MOSUNNY   26  17  68 N3        30.13R
WAYNE          MOSUNNY   22  15  74 CALM      30.11R
$$

NEZ050>053-065>068-078-088>093-282200-
SOUTHEAST NEBRASKA

CITY           SKY/WX    TMP DP  RH WIND       PRES   REMARKS
LINCOLN        MOSUNNY   33  19  56 VRB3      30.11S
OMAHA EPPLEY   PTSUNNY   34  20  56 E3        30.12F
BEATRICE       MOSUNNY   38  24  55 S8        30.08S WCI  32
FALLS CITY     SUNNY     41  20  43 CALM      30.11F
NEBRASKA CITY  SUNNY     39  16  39 SW5       30.10S
PLATTSMOUTH    MOSUNNY   34  20  55 SW3       30.10S
$$

NEZ044-045-051>053-067-282200-
OMAHA AREA

CITY           SKY/WX    TMP DP  RH WIND       PRES   REMARKS
OMAHA EPPLEY   PTSUNNY   34  20  56 E3        30.12F
BLAIR          MOSUNNY   32  22  66 CALM      30.09S
FREMONT        MOSUNNY   26  18  69 N3        30.10F
MILLARD        MOSUNNY   33  18  53 CALM      30.11S
OFFUTT AFB     MOSUNNY   34  20  58 S1        30.11S
PLATTSMOUTH    MOSUNNY   34  20  55 SW3       30.10S
WAHOO          FAIR      29  19  64 CALM      30.09F
$$


USA.gov is the U.S. government's official web portal to all federal, state and local government web resources and services.